Weather History for Lumberton, NC

Change the Weather History Date:

Friday, November 29, 2013

  Actual Average Record
Temperature  
Mean Temperature 40 °F 50 °F  
Max Temperature 54 °F 62 °F 77 °F (2001)
Min Temperature 26 °F 38 °F 21 °F (2002)
Degree Days  
Heating Degree Days 25 15  
Month to date heating degree days 390 320  
Since 1 July heating degree days 494 452  
Cooling Degree Days 0 0  
Month to date cooling degree days 14 10  
Year to date cooling degree days 1861 1904  
Moisture  
Dew Point 26 °F    
Average Humidity 61    
Maximum Humidity 92    
Minimum Humidity 29    
Precipitation  
Precipitation 0.00 in 0.10 in 1.43 in (2005)
Month to date precipitation 2.47 2.78  
Year to date precipitation 40.20 40.54  
Sea Level Pressure  
Sea Level Pressure 30.53 in    
Wind  
Wind Speed 5 mph (NE)    
Max Wind Speed 13 mph    
Max Gust Speed 23 mph    
Visibility 10 miles    
Events      
T = Trace of Precipitation, MM = Missing Value Source: NWS Daily Summary

Daily Weather History Graph

Daily Weather History Graph

Search for Another Location

Airport:

Trip Planner

Search our weather history database for the weather conditions in past years. The results will help you decide how hot, cold, wet, or windy it might be!

Date:

Astronomy

Nov. 29, 2013 Rise Set
Actual Time 7:03 AM EST 5:05 PM EST
Civil Twilight 6:35 AM EST 5:33 PM EST
Nautical Twilight 6:04 AM EST 6:04 PM EST
Astronomical Twilight 5:34 AM EST 6:34 PM EST
Moon 3:15 AM EST (11/29) 2:42 PM EST (11/29)
Length of Visible Light 10h 57m
Length of Day
10h 02m
Waning Crescent, 14% of the Moon is Illuminated
Nov 29
Waning Crescent
Dec 2
New
Dec 9
First Quarter
Dec 17
Full
Dec 25
Last Quarter

Hourly Weather History & Observations

Time (EST) Temp. Windchill Dew Point Humidity Pressure Visibility Wind Dir Wind Speed Gust Speed Precip Events Conditions
12:54 AM 28.0 °F 24.2 °F 26.1 °F 92% 30.49 in 10.0 mi WNW 3.5 mph - N/A   Clear
1:54 AM 28.9 °F - 26.1 °F 89% 30.48 in 10.0 mi Calm Calm - N/A   Clear
2:54 AM 28.0 °F - 26.1 °F 92% 30.49 in 10.0 mi Calm Calm - N/A   Clear
3:54 AM 28.0 °F - 25.0 °F 88% 30.49 in 10.0 mi Calm Calm - N/A   Clear
4:54 AM 28.0 °F - 25.0 °F 88% 30.50 in 8.0 mi Calm Calm - N/A   Clear
5:54 AM 27.0 °F - 24.1 °F 89% 30.51 in 8.0 mi Calm Calm - N/A   Clear
6:54 AM 27.0 °F - 25.0 °F 92% 30.52 in 8.0 mi Calm Calm - N/A   Clear
7:54 AM 28.0 °F - 26.1 °F 92% 30.54 in 9.0 mi North - - N/A   Clear
8:54 AM 37.0 °F - 28.9 °F 73% 30.56 in 10.0 mi North - - N/A   Clear
9:54 AM 44.1 °F - 30.0 °F 58% 30.56 in 10.0 mi North - - N/A   Clear
10:54 AM 48.0 °F - 28.9 °F 48% 30.56 in 10.0 mi NNE 9.2 mph - N/A   Clear
11:54 AM 50.0 °F - 27.0 °F 41% 30.54 in 10.0 mi ENE 9.2 mph - N/A   Clear
12:54 PM 51.1 °F - 27.0 °F 39% 30.52 in 10.0 mi North 9.2 mph 18.4 mph N/A   Clear
1:54 PM 53.1 °F - 24.1 °F 32% 30.51 in 10.0 mi North - - N/A   Clear
2:54 PM 54.0 °F - 24.1 °F 31% 30.51 in 10.0 mi North - - N/A   Clear
3:54 PM 53.1 °F - 23.0 °F 31% 30.51 in 10.0 mi North - - N/A   Clear
4:54 PM 50.0 °F - 23.0 °F 35% 30.52 in 10.0 mi NE 8.1 mph - N/A   Clear
5:54 PM 46.0 °F 43.1 °F 25.0 °F 44% 30.53 in 10.0 mi NE 5.8 mph - N/A   Clear
6:54 PM 43.0 °F 39.5 °F 26.1 °F 51% 30.55 in 10.0 mi NE 5.8 mph - N/A   Clear
7:54 PM 43.0 °F 38.8 °F 27.0 °F 53% 30.56 in 10.0 mi ENE 6.9 mph - N/A   Clear
8:54 PM 42.1 °F 36.1 °F 27.0 °F 55% 30.57 in 10.0 mi NE 10.4 mph - N/A   Clear
9:54 PM 39.9 °F 35.1 °F 27.0 °F 60% 30.60 in 10.0 mi NE 6.9 mph - N/A   Clear
10:54 PM 39.0 °F 32.8 °F 26.1 °F 60% 30.59 in 10.0 mi NE 9.2 mph - N/A   Clear
11:54 PM 37.9 °F 33.5 °F 26.1 °F 62% 30.60 in 10.0 mi NE 5.8 mph - N/A   Clear